Wind_Speed
8 7 30 32 28 26 29 31 30 29 34 34 32 28 27 30 28 28 27 28 26 24 23 20 19 19 17 16 14 11 9 6 5 4 5 6 8 10 12 11 12 12 12
7 6 16 23 25 30 27 26 27 26 27 27 25 21 22 27 29 25 24 25 24 23 22 21 19 19 18 15 13 12 7 5 5 5 3 1 1 2 3 5 11 13 12
6 4 11 23 21 16 14 25 23 24 31 30 29 22 24 18 24 26 25 24 23 24 23 21 19 17 16 16 14 12 10 8 8 9 3 1 2 1 3 4 4 6 9
7 4 7 16 23 21 22 26 24 27 26 26 29 30 29 21 23 25 29 26 24 21 21 19 16 15 11 9 11 11 14 15 12 9 11 13 5 2 2 4 4 2 1
9 6 7 9 16 23 34 30 19 18 34 18 27 26 18 22 25 21 20 20 20 21 23 19 18 17 9 6 10 15 19 17 16 13 6 9 15 17 8 1 2 5 6
8 5 7 11 11 16 21 26 25 32 31 42 20 22 17 16 20 22 21 18 16 24 21 16 19 17 19 13 19 20 18 17 15 11 10 10 4 3 4 2 3 5 8
4 6 6 5 8 15 21 28 33 32 27 25 36 30 24 21 28 27 18 16 21 24 24 19 25 22 15 11 10 11 8 10 10 8 8 8 10 11 12 11 7 5 7
6 6 6 9 14 16 21 23 24 25 24 24 26 14 23 17 26 24 22 25 28 25 25 20 17 14 14 12 10 9 9 8 7 6 7 11 11 9 9 9 9 5 6
7 7 7 9 6 10 15 18 20 20 22 21 20 23 30 33 33 28 28 23 22 21 21 19 18 16 14 12 10 9 9 8 7 5 5 8 9 11 11 10 11 8 3
9 7 6 9 6 7 12 11 17 21 23 23 25 27 27 23 19 21 22 21 20 21 21 20 17 15 13 11 10 9 6 3 4 5 6 6 6 6 6 7 9 10 13
9 7 7 10 6 8 11 13 16 19 18 17 18 20 21 23 22 23 23 23 21 20 20 18 17 15 13 11 9 7 4 3 2 1 3 2 4 5 6 6 7 9 11
5 5 7 6 5 6 10 12 14 16 17 17 19 21 22 22 23 24 22 20 20 19 17 17 16 13 11 10 8 7 4 3 3 2 1 1 3 4 5 6 7 8 9
5 5 5 6 5 4 7 10 12 15 17 19 21 22 22 23 23 22 21 20 20 17 15 13 13 13 11 9 8 6 4 3 2 1 1 3 4 5 6 7 8 8 9
8 7 6 4 4 3 5 9 10 13 16 18 19 21 20 19 20 20 19 17 15 15 16 15 14 13 12 10 9 7 4 3 1 2 2 3 4 6 6 7 8 9 10
11 9 8 6 7 6 8 9 10 11 14 17 19 19 19 20 19 18 16 16 16 17 16 15 14 12 10 10 8 6 3 2 0 2 3 4 5 5 6 8 8 8 9
10 9 8 8 7 4 7 9 11 12 14 16 16 17 20 20 19 19 19 16 15 15 14 14 14 14 11 8 6 5 2 2 2 2 3 4 4 5 5 8 9 9 8
7 8 8 8 6 4 6 8 11 12 14 18 20 21 21 20 18 18 18 18 16 15 14 15 14 11 8 6 2 4 2 2 4 4 4 3 5 5 6 7 8 8 8
9 8 8 10 5 1 6 11 12 13 13 15 15 16 18 20 19 19 18 17 16 15 13 10 9 8 7 6 3 3 1 2 4 4 3 4 6 8 8 9 9 9 9
8 12 15 14 5 2 6 9 10 11 12 15 18 19 19 19 18 17 16 15 14 12 10 9 9 10 8 8 5 4 0 2 5 5 4 4 6 7 6 8 9 8 6
10 15 15 7 3 2 6 7 9 8 7 8 10 12 14 16 17 18 18 16 15 13 11 9 6 8 8 8 6 4 3 2 3 4 5 4 5 6 6 7 7 7 5
14 14 11 9 5 5 8 7 6 6 8 10 11 12 13 13 14 15 14 14 13 12 10 8 5 5 8 7 7 6 4 5 5 5 6 6 6 7 7 7 8 6 5
14 16 16 15 11 5 4 6 5 3 5 8 10 11 11 13 14 13 13 14 15 14 10 6 6 7 6 7 9 8 9 8 8 8 7 7 7 6 6 6 8 6 5
12 12 12 14 15 11 4 5 3 3 6 8 10 11 11 11 13 15 14 14 13 11 10 9 7 7 7 8 8 8 9 9 11 11 9 8 7 6 7 7 6 6 8
10 10 13 14 16 15 13 10 6 3 1 2 5 7 9 10 10 10 10 13 15 14 11 10 10 9 8 7 8 7 9 10 10 12 10 10 8 8 8 8 8 9 8
9 10 11 11 12 11 13 11 9 5 2 2 3 5 7 10 12 13 13 13 12 12 13 13 10 10 9 6 6 5 7 9 8 10 11 11 11 11 10 9 9 10 9
5 7 8 8 8 9 10 10 9 7 4 2 2 0 3 8 6 8 10 11 12 13 13 11 10 10 10 6 5 6 8 8 9 9 11 12 12 13 12 10 11 12 12
Wind_Direction
298 257 180 191 176 177 178 181 178 180 173 177 182 186 188 191 195 203 207 207 205 205 208 211 212 211 210 211 210 217 224 240 253 301 309 293 271 261 259 255 250 246 242
275 250 186 179 183 184 180 180 181 178 172 180 182 186 190 198 201 201 204 206 207 210 213 215 215 215 217 222 223 223 218 213 237 204 190 233 163 304 276 267 245 241 242
210 211 173 182 188 205 189 186 188 192 183 187 184 182 194 198 202 202 204 206 212 218 219 220 221 222 226 226 224 216 209 200 215 223 212 209 248 312 258 268 246 236 238
146 159 164 159 165 179 239 207 194 207 187 192 181 180 181 183 201 201 205 209 210 215 217 225 221 219 204 208 219 218 220 216 207 230 233 239 231 202 257 232 219 149 246
124 136 145 145 155 171 190 189 187 217 218 196 191 176 174 184 197 204 206 206 207 217 223 211 208 190 155 187 246 220 210 228 242 234 215 239 259 258 237 169 275 247 246
126 137 130 131 162 188 176 161 166 184 209 217 187 202 210 214 201 197 187 192 222 229 223 211 204 199 212 230 219 222 227 236 243 242 240 233 223 214 213 246 258 257 275
108 85 82 101 144 195 190 172 165 171 181 203 232 236 222 225 217 206 200 220 229 219 214 209 215 210 208 220 210 207 215 211 214 219 213 244 263 268 273 262 266 268 281
87 94 117 140 169 183 183 175 165 161 169 190 219 152 180 270 244 228 226 225 230 219 201 189 184 173 166 166 168 167 174 183 185 203 238 260 273 268 269 258 269 267 252
23 29 59 84 153 178 172 179 172 169 183 187 177 177 169 189 199 204 213 210 192 166 156 154 153 157 160 158 169 176 189 207 240 249 252 264 268 264 262 267 279 265 272
346 13 33 48 87 168 177 174 167 165 169 175 182 182 186 183 170 165 163 151 145 146 147 151 158 162 166 163 167 173 179 195 236 257 267 276 283 287 300 289 273 264 261
344 349 21 12 55 121 147 153 153 147 147 155 160 157 152 150 148 148 146 148 149 153 155 160 159 156 152 147 150 143 145 162 165 262 306 292 308 315 302 293 290 280 269
321 317 360 347 45 109 143 149 145 141 144 145 147 145 145 147 146 148 151 156 155 153 154 153 150 148 142 136 140 135 142 162 177 197 251 325 321 304 295 299 296 292 286
57 47 0 5 25 92 146 137 139 141 144 149 149 145 146 148 147 149 151 152 150 146 148 149 147 142 140 142 128 123 134 148 143 116 8 343 330 316 317 321 311 299 284
63 61 39 32 74 104 123 128 127 137 141 145 147 145 146 147 144 145 146 150 150 149 150 147 145 141 141 133 127 113 117 93 50 12 330 326 316 317 313 305 301 297 292
35 39 34 30 40 80 106 114 121 133 141 141 145 143 144 146 146 145 146 147 147 145 144 143 138 132 133 130 124 115 122 111 15 312 308 312 317 316 315 308 298 288 285
17 24 30 35 37 66 104 124 131 140 148 143 143 147 147 145 146 147 147 147 144 143 146 143 146 142 132 123 122 103 94 45 321 331 327 322 315 298 305 306 303 295 283
9 17 15 11 32 91 131 137 142 148 150 149 150 149 149 146 149 149 149 150 151 150 147 152 150 134 124 127 128 115 90 337 316 324 327 318 304 297 295 287 283 282 281
351 347 358 1 359 146 137 140 144 148 153 154 153 154 153 150 156 157 156 151 151 158 161 150 129 141 159 154 171 127 92 335 332 347 345 325 309 296 296 293 287 281 280
338 332 336 332 346 190 160 150 146 154 163 165 167 167 165 161 161 160 158 158 157 159 166 164 168 167 168 170 163 192 305 351 352 5 5 324 299 291 292 295 294 289 283
9 348 349 351 40 124 157 148 148 153 161 174 172 167 167 167 167 168 165 165 167 172 177 183 181 175 171 182 182 209 240 310 332 338 347 314 302 293 278 270 287 288 288
8 17 27 37 43 147 155 142 150 156 160 163 167 169 175 178 177 173 174 170 174 180 189 195 198 196 198 193 196 215 249 260 270 304 318 321 294 271 254 254 263 280 280
19 27 35 36 41 85 143 139 136 149 165 177 171 177 183 187 185 181 183 181 185 191 199 207 229 227 228 215 214 217 237 254 265 279 288 309 293 272 257 248 258 274 268
30 37 47 52 50 53 69 101 67 143 177 178 182 183 186 190 195 192 192 189 194 205 215 219 237 247 239 244 234 235 244 247 259 273 272 281 288 271 256 245 255 243 260
31 34 52 51 47 57 65 61 45 42 148 187 192 192 193 201 207 213 217 212 210 214 222 231 245 246 242 242 243 247 251 254 251 258 260 256 276 266 262 245 237 245 261
35 42 50 58 51 46 50 48 50 54 105 166 195 205 211 217 211 217 220 225 236 237 238 243 255 256 248 244 245 254 267 270 266 250 247 252 260 258 256 253 250 253 257
64 52 47 50 50 47 43 40 38 45 59 100 93 219 229 243 243 250 248 242 242 241 244 250 256 259 261 260 261 260 260 262 272 251 251 254 261 259 258 259 256 256 254
Height
735 731 732 737 742 750 760 765 769 775 780 787 794 801 804 808 814 819 824 828 831 835 840 844 848 852 854 857 859 862 864 866 867 868 868 867 868 868 868 868 868 869 868
737 729 727 735 743 746 756 762 767 774 780 789 795 802 804 808 813 818 822 826 829 833 837 841 846 850 853 856 859 861 863 865 866 866 865 865 865 866 864 864 864 865 866
735 732 729 729 735 743 755 761 768 775 781 785 791 797 803 809 814 816 819 822 826 830 834 839 844 848 851 854 856 859 862 862 863 864 865 866 863 862 861 863 862 862 863
729 733 730 733 739 747 757 765 770 773 778 783 788 790 796 804 809 810 814 819 824 828 833 838 843 847 850 853 856 858 859 858 857 861 861 862 862 862 862 861 861 861 861
722 730 732 734 738 750 759 754 760 767 769 779 786 789 797 800 804 810 814 817 821 826 832 834 839 842 846 850 854 854 851 857 857 857 859 861 860 860 860 859 859 860 860
725 732 732 732 737 744 752 756 764 772 779 780 780 790 795 800 803 808 809 812 817 823 829 831 836 837 839 841 845 848 851 852 855 856 857 858 859 858 858 859 858 856 857
728 728 730 732 732 743 749 755 763 769 775 776 776 789 793 803 807 803 804 808 815 818 822 826 830 833 837 840 842 844 847 849 851 853 854 856 857 857 856 855 856 856 854
727 732 736 738 741 744 747 752 760 765 770 777 780 769 785 797 806 799 806 804 811 815 817 824 829 833 834 838 841 843 845 847 849 850 850 852 853 853 854 854 853 852 852
722 726 733 738 741 742 745 748 752 761 766 772 774 782 791 797 804 801 802 805 808 812 815 820 825 830 833 834 838 840 843 844 845 847 847 848 849 851 849 850 851 851 848
726 731 734 739 743 745 747 751 756 760 765 769 776 781 787 791 793 796 800 803 808 811 814 820 826 829 830 831 834 837 839 839 841 844 844 844 845 847 846 847 846 847 848
737 737 739 741 745 747 749 753 757 759 764 769 774 778 782 786 791 796 799 806 809 812 815 820 823 826 827 827 830 832 835 839 839 841 842 844 844 843 843 843 843 844 844
753 746 744 747 748 750 754 755 757 759 764 769 772 775 780 784 788 793 800 806 809 811 814 818 820 823 824 825 827 829 833 836 839 840 841 841 841 841 840 839 839 840 839
755 752 752 751 753 753 755 756 758 762 766 770 773 778 783 786 789 795 800 805 807 809 814 816 819 820 823 827 825 827 832 836 836 836 835 835 837 838 838 838 837 836 835
756 756 759 759 757 758 756 757 760 761 764 769 773 777 782 787 789 793 797 802 805 807 812 816 818 819 823 824 825 827 832 831 833 832 833 833 835 835 836 836 834 834 834
759 759 761 759 759 760 759 760 761 764 766 769 774 776 779 783 787 792 797 801 806 809 812 815 816 819 821 822 824 825 831 830 831 832 833 832 832 833 834 833 832 831 831
766 766 766 765 765 766 764 764 765 769 773 772 774 778 780 784 789 793 797 804 807 807 812 814 818 820 821 820 824 824 828 830 833 830 829 830 829 831 831 830 829 830 829
773 773 771 769 770 771 770 770 771 774 776 778 780 782 785 787 793 796 799 804 809 813 814 819 819 816 818 819 822 824 827 831 831 827 825 826 828 829 828 827 827 827 827
774 772 771 774 774 775 775 774 776 777 781 781 781 783 785 787 796 799 802 803 806 812 817 816 810 816 822 821 823 823 827 829 828 823 822 824 825 827 825 825 825 824 824
777 774 770 770 770 772 773 774 777 780 783 785 787 788 787 789 794 797 800 802 803 808 814 817 818 818 820 821 821 824 823 825 825 822 820 821 822 824 823 823 823 823 822
781 777 774 772 770 771 774 774 776 778 781 783 784 785 787 790 794 797 799 802 805 810 816 818 817 816 816 819 818 818 823 820 821 821 819 820 820 822 821 821 821 821 820
781 779 778 776 774 776 776 777 780 781 782 784 786 788 791 793 794 796 798 799 803 809 814 816 815 814 816 815 815 816 816 817 818 816 816 817 819 820 819 819 819 819 818
783 780 778 776 775 777 778 779 781 782 782 785 783 785 789 794 794 794 799 800 805 808 811 810 813 814 812 811 813 810 812 815 813 813 815 815 817 816 816 817 817 818 816
788 788 785 783 781 779 781 782 782 783 785 785 787 788 790 792 795 796 798 798 800 804 808 810 810 810 810 810 808 808 810 811 810 811 811 813 814 813 814 814 814 815 815
789 788 786 786 785 785 784 784 784 784 786 786 787 788 788 791 791 792 794 798 802 805 803 803 807 807 806 806 806 805 807 807 808 808 809 810 810 811 812 811 811 812 812
793 792 790 789 790 790 789 788 787 788 788 789 789 789 791 792 793 794 795 796 797 799 800 803 803 803 803 802 802 801 803 805 804 805 806 806 808 808 809 808 808 809 809
797 796 795 795 794 794 793 792 791 791 791 791 789 790 790 791 790 790 792 792 795 797 798 799 799 800 799 798 798 800 801 802 803 802 802 803 804 805 805 804 805 805 805